EOS-6 (OCEANSAT-3)

Last updated on Mon Sep 21 2026 00:02:54 GMT+0000 (Coordinated Universal Time)

1 54361U 22158A 26263.58855168 .00000117 00000+0 44131-4 0 9997 2 54361 98.3553 0.5190 0002240 80.6657 279.4789 14.46980385201635
UTC large
Height (km)
Speed (km/s)
/
Latitude / Longitude
Inclination (degrees)
Orbital Period (minutes)
Azimuth
Elevation
Range (km)
Doppler Factor

Next 0 passes for location: London (51.5072 / 0.1276)

No passes found over London.
EOS-6 (OCEANSAT-3)